Location: Del Amo
(33.8464°N, 118.2104°W)
Time: 13:40:30
(UTC+00:00)

Vanguard 1 Rocket - All Passes

Search period start: 13 September 2024 00:00
Search period end: 23 September 2024 00:00
Orbit: 649 x 4220 km, 34.3° (Epoch: 12 September)

Date Brightness Start Highest point End Pass type
(mag) Time Alt. Az. Time Alt. Az. Time Alt. Az.
13 Sep - 10:04:08 10° SSW 10:15:45 48° SE 10:36:23 10° ENE visible
13 Sep - 12:28:22 10° WSW 12:45:05 85° SSE 13:11:40 10° E visible
13 Sep - 14:56:24 10° W 15:19:11 89° S 15:44:44 10° ESE daylight
13 Sep - 17:27:19 10° WNW 17:52:47 64° SSW 18:13:09 10° SE daylight
13 Sep - 20:03:13 10° W 20:21:28 27° SW 20:35:00 10° S daylight
14 Sep - 08:54:06 10° S 09:03:11 30° SE 09:18:03 10° E visible
14 Sep - 11:16:03 10° SW 11:29:50 73° SSE 11:54:26 10° ENE visible
14 Sep - 13:42:27 10° W 14:02:06 89° N 14:28:57 10° E daylight
14 Sep - 16:11:51 10° WNW 16:36:33 77° SSW 16:59:54 10° ESE daylight
14 Sep - 18:44:37 10° WNW 19:07:39 42° SW 19:24:59 10° SSE daylight
15 Sep - 07:46:41 10° SSE 07:51:30 14° ESE 07:57:38 10° E visible
15 Sep - 10:04:37 10° SW 10:15:53 56° SE 10:36:51 10° ENE visible
15 Sep - 12:29:18 10° WSW 12:45:40 88° S 13:12:12 10° E visible
15 Sep - 14:57:15 10° W 15:19:38 86° SSW 15:45:21 10° ESE daylight
15 Sep - 17:27:58 10° WNW 17:52:42 58° SW 18:13:18 10° SE daylight
15 Sep - 20:05:15 10° W 20:21:03 21° SW 20:33:36 10° SSW daylight
16 Sep - 08:54:09 10° SSW 09:03:10 36° SE 09:18:58 10° ENE visible
16 Sep - 11:16:54 10° WSW 11:30:18 79° SSE 11:54:50 10° ENE visible
16 Sep - 13:43:25 10° W 14:02:41 89° N 14:29:34 10° E daylight
16 Sep - 16:12:34 10° WNW 16:36:42 71° SSW 17:00:15 10° SE daylight
16 Sep - 18:45:40 10° WNW 19:07:17 36° SW 19:24:29 10° SSE daylight
17 Sep - 07:45:20 10° SSE 07:51:26 19° SE 08:00:10 10° E visible
17 Sep - 10:05:15 10° SW 10:16:11 63° SSE 10:37:15 10° ENE visible
17 Sep - 12:30:17 10° W 12:46:18 89° N 13:12:44 10° E visible
17 Sep - 14:58:05 10° W 15:20:01 82° SSW 15:45:51 10° ESE daylight
17 Sep - 17:28:43 10° WNW 17:52:29 51° SW 18:13:12 10° SSE daylight
17 Sep - 20:08:26 10° W 20:20:40 16° SW 20:31:07 10° SSW daylight
18 Sep - 08:54:27 10° SSW 09:03:19 43° SE 09:19:39 10° ENE visible
18 Sep - 11:17:50 10° WSW 11:30:54 84° SSE 11:55:15 10° E visible
18 Sep - 13:44:22 10° W 14:03:15 89° S 14:30:07 10° ESE daylight
18 Sep - 16:13:17 10° WNW 16:36:43 65° SSW 17:00:24 10° SE daylight
18 Sep - 18:47:04 10° W 19:06:53 29° SW 19:23:31 10° S daylight
19 Sep - 07:44:52 10° S 07:51:27 24° SE 08:01:45 10° E visible
19 Sep - 10:06:03 10° SW 10:16:39 71° SSE 10:37:37 10° ENE visible
19 Sep - 12:31:18 10° W 12:46:58 88° N 13:13:15 10° E visible
19 Sep - 14:58:55 10° WNW 15:20:18 77° SSW 15:46:11 10° ESE daylight
19 Sep - 17:29:37 10° WNW 17:52:13 44° SW 18:12:46 10° SSE daylight
19 Sep - 20:14:49 10° WSW 20:20:22 11° WSW 20:25:34 10° SW daylight
20 Sep - 08:54:59 10° SW 09:03:35 51° SE 09:20:11 10° ENE visible
20 Sep - 11:18:50 10° WSW 11:31:35 88° S 11:55:40 10° E visible
20 Sep - 13:45:18 10° W 14:03:46 86° SSW 14:30:34 10° ESE daylight
20 Sep - 16:14:04 10° WNW 16:36:39 58° SW 17:00:18 10° SE daylight
20 Sep - 18:49:03 10° W 19:06:30 24° SW 19:21:56 10° S daylight
21 Sep - 07:44:51 10° SSW 07:51:34 30° SE 08:02:53 10° E visible
21 Sep - 10:06:57 10° WSW 10:17:15 78° SSE 10:37:58 10° ENE visible
21 Sep - 12:32:19 10° W 12:47:39 89° N 13:13:44 10° E visible
21 Sep - 14:59:43 10° WNW 15:20:29 71° SSW 15:46:18 10° SE daylight
21 Sep - 17:30:46 10° W 17:51:54 37° SW 18:11:59 10° SSE daylight
22 Sep - 06:36:57 10° SSE 06:40:16 13° SE 06:44:22 10° E visible
22 Sep - 08:55:41 10° SW 09:04:02 60° SSE 09:20:38 10° ENE visible
22 Sep - 11:19:53 10° W 11:32:19 89° N 11:56:06 10° E visible
22 Sep - 13:46:13 10° WNW 14:04:12 82° SSW 14:30:52 10° ESE daylight
22 Sep - 16:14:58 10° WNW 16:36:32 51° SW 16:59:54 10° SSE daylight
22 Sep - 18:52:02 10° W 19:06:12 18° SW 19:19:20 10° SSW daylight
